| time (UTC) | temp C | wind direction | speed KPH | gust KPH | rain 1hr cm | rain 24hr cm | rain mn cm | humidity % | barometer mb |
| 20260507040545 | 4 | 0 | 0.0 | 0.0 | 0.00 | 1.45 | 0.00 | 92 | 1010.2 |
| 20260507040058 | 5 | 0 | 0.0 | 0.0 | 0.00 | 1.45 | 0.00 | 92 | 1010.4 |
| 20260507035544 | 5 | 0 | 0.0 | 0.0 | 0.00 | 1.45 | 1.45 | 92 | 1010.3 |
| 20260507035045 | 5 | 0 | 0.0 | 0.0 | 0.00 | 1.45 | 1.45 | 92 | 1010.3 |
| 20260507034552 | 5 | 0 | 0.0 | 0.0 | 0.00 | 1.45 | 1.45 | 91 | 1010.1 |
| 20260507034045 | 5 | 0 | 0.0 | 0.0 | 0.00 | 1.45 | 1.45 | 92 | 1010.2 |
| 20260507033547 | 5 | 0 | 0.0 | 0.0 | 0.00 | 1.45 | 1.45 | 91 | 1010.2 |
| 20260507033055 | 5 | 0 | 0.0 | 0.0 | 0.00 | 1.45 | 1.45 | 91 | 1010.2 |
| 20260507032545 | 5 | 0 | 0.0 | 0.0 | 0.00 | 1.45 | 1.45 | 91 | 1010.2 |
| 20260507032044 | 6 | 0 | 0.0 | 0.0 | 0.00 | 1.45 | 1.45 | 90 | 1010.0 |
| 20260507031553 | 6 | 0 | 0.0 | 0.0 | 0.00 | 1.45 | 1.45 | 91 | 1009.8 |
| 20260507031044 | 6 | 0 | 0.0 | 0.0 | 0.00 | 1.45 | 1.45 | 90 | 1009.6 |
| 20260507030544 | 6 | 0 | 0.0 | 0.0 | 0.00 | 1.45 | 1.45 | 91 | 1009.7 |
| 20260507030056 | 7 | 0 | 0.0 | 0.0 | 0.00 | 1.45 | 1.45 | 91 | 1010.0 |
| 20260507025544 | 7 | 0 | 0.0 | 0.0 | 0.00 | 1.45 | 1.45 | 91 | 1010.1 |
| 20260507025044 | 7 | 0 | 0.0 | 0.0 | 0.00 | 1.45 | 1.45 | 91 | 1010.3 |
| 20260507024550 | 7 | 0 | 0.0 | 0.0 | 0.00 | 1.45 | 1.45 | 91 | 1010.1 |
| 20260507024043 | 7 | 0 | 0.0 | 0.0 | 0.00 | 1.45 | 1.45 | 91 | 1010.2 |
| 20260507023544 | 7 | 0 | 0.0 | 0.0 | 0.00 | 1.45 | 1.45 | 91 | 1010.1 |
| 20260507023052 | 7 | 0 | 0.0 | 3.2 | 0.00 | 1.45 | 1.45 | 90 | 1010.1 |
| 20260507022544 | 7 | 0 | 0.0 | 3.2 | 0.00 | 1.45 | 1.45 | 90 | 1010.4 |
| 20260507022045 | 7 | 350 | 1.6 | 3.2 | 0.00 | 1.45 | 1.45 | 90 | 1010.1 |
| 20260507021554 | 7 | 0 | 0.0 | 0.0 | 0.00 | 1.45 | 1.45 | 90 | 1010.3 |
| 20260507021044 | 7 | 0 | 0.0 | 0.0 | 0.00 | 1.45 | 1.45 | 90 | 1010.6 |
| 20260507020545 | 7 | 0 | 0.0 | 1.6 | 0.00 | 1.45 | 1.45 | 89 | 1010.5 |
| 20260507020115 | 7 | 0 | 0.0 | 1.6 | 0.00 | 1.45 | 1.45 | 89 | 1010.4 |
| 20260507015547 | 7 | 0 | 0.0 | 1.6 | 0.00 | 1.45 | 1.45 | 89 | 1010.6 |
| 20260507015045 | 7 | 0 | 0.0 | 1.6 | 0.00 | 1.45 | 1.45 | 89 | 1010.6 |
| 20260507014558 | 7 | 0 | 0.0 | 1.6 | 0.00 | 1.45 | 1.45 | 89 | 1010.6 |
| 20260507014047 | 7 | 0 | 0.0 | 0.0 | 0.00 | 1.45 | 1.45 | 89 | 1010.6 |
| 20260507013548 | 7 | 0 | 0.0 | 1.6 | 0.00 | 1.45 | 1.45 | 89 | 1010.6 |
| 20260507013050 | 7 | 0 | 0.0 | 1.6 | 0.00 | 1.45 | 1.45 | 89 | 1010.8 |
| 20260507012548 | 7 | 0 | 0.0 | 1.6 | 0.00 | 1.45 | 1.45 | 89 | 1010.8 |
| 20260507012048 | 7 | 0 | 0.0 | 1.6 | 0.00 | 1.45 | 1.45 | 88 | 1010.6 |
| 20260507011556 | 7 | 0 | 0.0 | 1.6 | 0.00 | 1.45 | 1.45 | 89 | 1010.4 |
| 20260507011047 | 7 | 0 | 0.0 | 1.6 | 0.00 | 1.45 | 1.45 | 89 | 1010.3 |
| 20260507010547 | 7 | 0 | 0.0 | 1.6 | 0.00 | 1.45 | 1.45 | 88 | 1010.4 |
| 20260507010101 | 7 | 332 | 0.0 | 0.0 | 0.00 | 1.45 | 1.45 | 88 | 1010.3 |
| 20260507005547 | 7 | 0 | 0.0 | 1.6 | 0.00 | 1.45 | 1.45 | 88 | 1010.3 |
| 20260507005048 | 7 | 0 | 0.0 | 1.6 | 0.00 | 1.45 | 1.45 | 88 | 1010.4 |
| 20260507004557 | 7 | 0 | 0.0 | 4.8 | 0.00 | 1.45 | 1.45 | 88 | 1010.3 |
| 20260507004048 | 7 | 0 | 0.0 | 4.8 | 0.00 | 1.45 | 1.45 | 88 | 1010.3 |
| 20260507003548 | 7 | 324 | 0.0 | 3.2 | 0.00 | 1.45 | 1.45 | 88 | 1010.0 |
| 20260507003056 | 7 | 0 | 0.0 | 3.2 | 0.00 | 1.45 | 1.45 | 88 | 1010.0 |
| 20260507002548 | 7 | 2 | 0.0 | 1.6 | 0.00 | 1.45 | 1.45 | 89 | 1010.0 |
| 20260507002047 | 7 | 0 | 0.0 | 3.2 | 0.00 | 1.45 | 1.45 | 89 | 1009.8 |
| 20260507001557 | 7 | 0 | 0.0 | 4.8 | 0.00 | 1.45 | 1.45 | 88 | 1009.7 |
| 20260507001046 | 7 | 14 | 1.6 | 4.8 | 0.00 | 1.45 | 1.45 | 89 | 1009.5 |
| 20260507000549 | 7 | 355 | 0.0 | 3.2 | 0.00 | 1.45 | 1.45 | 89 | 1009.4 |
| 20260507000054 | 7 | 355 | 0.0 | 3.2 | 0.00 | 1.45 | 1.45 | 89 | 1009.5 |
| 20260506235548 | 7 | 0 | 0.0 | 3.2 | 0.00 | 1.45 | 1.45 | 89 | 1009.4 |
| 20260506235047 | 7 | 0 | 0.0 | 3.2 | 0.00 | 1.45 | 1.45 | 89 | 1009.5 |
| 20260506234559 | 8 | 0 | 0.0 | 3.2 | 0.00 | 1.45 | 1.45 | 89 | 1009.1 |
| 20260506234047 | 7 | 326 | 0.0 | 4.8 | 0.00 | 1.45 | 1.45 | 88 | 1009.2 |
| 20260506233551 | 8 | 0 | 0.0 | 8.0 | 0.00 | 1.45 | 1.45 | 89 | 1009.2 |
| 20260506233053 | 8 | 351 | 0.0 | 8.0 | 0.00 | 1.45 | 1.45 | 89 | 1009.1 |
| 20260506232548 | 8 | 352 | 0.0 | 1.6 | 0.00 | 1.45 | 1.45 | 89 | 1009.2 |
| 20260506232048 | 8 | 330 | 0.0 | 3.2 | 0.00 | 1.45 | 1.45 | 89 | 1009.1 |
| 20260506231608 | 8 | 0 | 0.0 | 6.4 | 0.00 | 1.45 | 1.45 | 89 | 1009.1 |
| 20260506231048 | 8 | 339 | 1.6 | 6.4 | 0.00 | 1.45 | 1.45 | 89 | 1009.2 |
| 20260506230547 | 8 | 25 | 0.0 | 3.2 | 0.00 | 1.45 | 1.45 | 89 | 1009.1 |
| 20260506230121 | 8 | 12 | 0.0 | 6.4 | 0.00 | 1.45 | 1.45 | 89 | 1008.9 |
| 20260506225548 | 8 | 352 | 0.0 | 6.4 | 0.00 | 1.45 | 1.45 | 89 | 1008.9 |
| 20260506225047 | 8 | 349 | 1.6 | 6.4 | 0.00 | 1.45 | 1.45 | 89 | 1008.6 |
| 20260506224553 | 8 | 357 | 0.0 | 3.2 | 0.00 | 1.45 | 1.45 | 89 | 1008.5 |
| 20260506224046 | 8 | 354 | 0.0 | 4.8 | 0.00 | 1.45 | 1.45 | 89 | 1008.6 |
| 20260506223550 | 8 | 354 | 1.6 | 4.8 | 0.00 | 1.45 | 1.45 | 88 | 1008.3 |
| 20260506223057 | 8 | 355 | 1.6 | 3.2 | 0.00 | 1.45 | 1.45 | 89 | 1008.2 |
| 20260506222547 | 8 | 10 | 0.0 | 3.2 | 0.00 | 1.45 | 1.45 | 89 | 1008.2 |
| 20260506222052 | 8 | 335 | 0.0 | 4.8 | 0.00 | 1.45 | 1.45 | 89 | 1008.3 |
| 20260506221615 | 8 | 18 | 1.6 | 4.8 | 0.00 | 1.45 | 1.45 | 89 | 1008.2 |
| 20260506221048 | 8 | 165 | 0.0 | 6.4 | 0.00 | 1.45 | 1.45 | 88 | 1008.1 |
| 20260506220551 | 8 | 165 | 3.2 | 17.7 | 0.00 | 1.45 | 1.45 | 88 | 1007.9 |
| 20260506220129 | 8 | 90 | 3.2 | 17.7 | 0.00 | 1.45 | 1.45 | 88 | 1007.8 |
| 20260506215549 | 8 | 356 | 4.8 | 17.7 | 0.00 | 1.45 | 1.45 | 88 | 1007.7 |
| 20260506215048 | 8 | 0 | 3.2 | 12.9 | 0.03 | 1.45 | 1.45 | 88 | 1007.6 |
| 20260506214552 | 9 | 82 | 4.8 | 9.7 | 0.05 | 1.45 | 1.45 | 88 | 1007.4 |
| 20260506214048 | 9 | 95 | 3.2 | 19.3 | 0.08 | 1.45 | 1.45 | 89 | 1007.7 |
| 20260506213547 | 9 | 113 | 4.8 | 19.3 | 0.08 | 1.45 | 1.45 | 89 | 1007.4 |
| 20260506213109 | 9 | 81 | 4.8 | 9.7 | 0.08 | 1.45 | 1.45 | 90 | 1007.4 |
| 20260506212548 | 9 | 59 | 1.6 | 14.5 | 0.08 | 1.45 | 1.45 | 90 | 1007.4 |
| 20260506212048 | 9 | 37 | 4.8 | 14.5 | 0.10 | 1.45 | 1.45 | 89 | 1007.1 |
| 20260506211555 | 10 | 86 | 4.8 | 14.5 | 0.10 | 1.45 | 1.45 | 89 | 1007.0 |
| 20260506211047 | 10 | 5 | 4.8 | 9.7 | 0.10 | 1.45 | 1.45 | 89 | 1006.9 |
| 20260506210548 | 10 | 109 | 3.2 | 8.0 | 0.13 | 1.45 | 1.45 | 90 | 1006.9 |
| 20260506210100 | 10 | 50 | 1.6 | 8.0 | 0.13 | 1.45 | 1.45 | 90 | 1006.8 |
| 20260506205547 | 11 | 20 | 4.8 | 8.0 | 0.13 | 1.45 | 1.45 | 89 | 1006.6 |
| 20260506205049 | 11 | 171 | 3.2 | 6.4 | 0.10 | 1.42 | 1.42 | 88 | 1006.4 |
| 20260506204605 | 12 | 359 | 0.0 | 9.7 | 0.08 | 1.40 | 1.40 | 89 | 1006.0 |
| 20260506204049 | 13 | 37 | 3.2 | 9.7 | 0.05 | 1.37 | 1.37 | 88 | 1006.1 |
| 20260506203548 | 14 | 198 | 0.0 | 1.6 | 0.05 | 1.37 | 1.37 | 92 | 1005.6 |
| 20260506203052 | 14 | 309 | 0.0 | 3.2 | 0.05 | 1.37 | 1.37 | 92 | 1005.3 |
| 20260506202548 | 14 | 0 | 0.0 | 3.2 | 0.05 | 1.37 | 1.37 | 92 | 1005.5 |
| 20260506202049 | 14 | 340 | 0.0 | 3.2 | 0.03 | 1.32 | 1.32 | 92 | 1005.4 |
| 20260506201553 | 14 | 315 | 0.0 | 3.2 | 0.03 | 1.32 | 1.32 | 92 | 1005.3 |
| 20260506201048 | 14 | 0 | 0.0 | 4.8 | 0.03 | 1.32 | 1.32 | 92 | 1005.3 |
| 20260506200548 | 14 | 333 | 0.0 | 6.4 | 0.00 | 1.32 | 1.32 | 92 | 1005.4 |
| 20260506200053 | 14 | 304 | 1.6 | 6.4 | 0.00 | 1.32 | 1.32 | 92 | 1005.5 |
| 20260506195552 | 14 | 317 | 1.6 | 6.4 | 0.00 | 1.32 | 1.32 | 91 | 1005.3 |
| 20260506195047 | 14 | 310 | 0.0 | 3.2 | 0.00 | 1.32 | 1.32 | 91 | 1005.3 |
| 20260506194552 | 14 | 310 | 0.0 | 4.8 | 0.00 | 1.32 | 1.32 | 91 | 1005.5 |
| 20260506194049 | 14 | 318 | 0.0 | 4.8 | 0.00 | 1.32 | 1.32 | 91 | 1005.6 |
| 20260506193547 | 14 | 304 | 0.0 | 4.8 | 0.00 | 1.32 | 1.32 | 91 | 1005.5 |
| 20260506193050 | 14 | 302 | 0.0 | 4.8 | 0.00 | 1.32 | 1.32 | 91 | 1005.6 |
| 20260506192548 | 14 | 330 | 0.0 | 4.8 | 0.00 | 1.32 | 1.32 | 91 | 1005.7 |
| 20260506192048 | 14 | 0 | 1.6 | 4.8 | 0.00 | 1.32 | 1.32 | 91 | 1005.8 |
| 20260506191553 | 14 | 302 | 0.0 | 4.8 | 0.00 | 1.32 | 1.32 | 91 | 1005.7 |
| 20260506191048 | 14 | 304 | 0.0 | 4.8 | 0.00 | 1.32 | 1.32 | 91 | 1005.8 |
| 20260506190547 | 14 | 346 | 1.6 | 8.0 | 0.00 | 1.32 | 1.32 | 92 | 1005.8 |
| 20260506190050 | 14 | 310 | 0.0 | 8.0 | 0.00 | 1.32 | 1.32 | 92 | 1005.8 |
| 20260506185547 | 14 | 280 | 3.2 | 16.1 | 0.00 | 1.32 | 1.32 | 92 | 1005.6 |
| 20260506185046 | 14 | 299 | 1.6 | 16.1 | 0.00 | 1.32 | 1.32 | 91 | 1005.6 |
| 20260506184622 | 14 | 296 | 1.6 | 16.1 | 0.00 | 1.32 | 1.32 | 91 | 1005.8 |
| 20260506184047 | 14 | 311 | 1.6 | 8.0 | 0.00 | 1.32 | 1.32 | 91 | 1005.9 |
| 20260506183551 | 14 | 357 | 1.6 | 11.3 | 0.00 | 1.32 | 1.32 | 92 | 1006.0 |
| 20260506183102 | 14 | 0 | 1.6 | 11.3 | 0.03 | 1.32 | 1.32 | 92 | 1005.9 |
| 20260506182547 | 14 | 297 | 4.8 | 11.3 | 0.03 | 1.32 | 1.32 | 92 | 1006.0 |
| 20260506182051 | 14 | 300 | 1.6 | 8.0 | 0.03 | 1.32 | 1.32 | 92 | 1006.1 |
| 20260506181553 | 14 | 340 | 1.6 | 8.0 | 0.03 | 1.32 | 1.32 | 92 | 1006.1 |
| 20260506181048 | 14 | 295 | 1.6 | 8.0 | 0.03 | 1.32 | 1.32 | 92 | 1006.0 |
| 20260506180548 | 13 | 0 | 1.6 | 8.0 | 0.03 | 1.32 | 1.32 | 92 | 1006.0 |
| 20260506180053 | 13 | 0 | 1.6 | 6.4 | 0.03 | 1.32 | 1.32 | 92 | 1006.1 |
| 20260506175547 | 13 | 281 | 1.6 | 4.8 | 0.05 | 1.32 | 1.32 | 92 | 1006.1 |
| 20260506175050 | 13 | 326 | 0.0 | 8.0 | 0.08 | 1.32 | 1.32 | 92 | 1006.0 |
| 20260506174552 | 13 | 332 | 1.6 | 8.0 | 0.08 | 1.32 | 1.32 | 92 | 1006.0 |
| 20260506174047 | 13 | 287 | 1.6 | 16.1 | 0.10 | 1.32 | 1.32 | 92 | 1005.9 |
| 20260506173547 | 13 | 311 | 1.6 | 16.1 | 0.13 | 1.32 | 1.32 | 92 | 1005.9 |
| 20260506173059 | 13 | 355 | 3.2 | 16.1 | 0.13 | 1.30 | 1.30 | 92 | 1005.9 |
| 20260506172549 | 13 | 0 | 1.6 | 14.5 | 0.15 | 1.30 | 1.30 | 92 | 1006.0 |
| 20260506172048 | 13 | 16 | 1.6 | 12.9 | 0.15 | 1.30 | 1.30 | 92 | 1006.1 |
| 20260506171559 | 13 | 319 | 0.0 | 9.7 | 0.15 | 1.30 | 1.30 | 92 | 1006.1 |
| 20260506171047 | 13 | 323 | 1.6 | 11.3 | 0.15 | 1.30 | 1.30 | 92 | 1006.1 |
| 20260506170548 | 13 | 296 | 4.8 | 11.3 | 0.15 | 1.30 | 1.30 | 92 | 1006.2 |
| 20260506170059 | 13 | 304 | 3.2 | 8.0 | 0.18 | 1.30 | 1.30 | 92 | 1006.2 |
| 20260506165548 | 13 | 314 | 1.6 | 6.4 | 0.15 | 1.27 | 1.27 | 92 | 1006.3 |
| 20260506165048 | 13 | 44 | 1.6 | 6.4 | 0.13 | 1.24 | 1.24 | 92 | 1006.3 |
| 20260506164554 | 13 | 301 | 0.0 | 6.4 | 0.15 | 1.24 | 1.24 | 92 | 1006.3 |
| 20260506164047 | 13 | 321 | 1.6 | 6.4 | 0.13 | 1.19 | 1.19 | 92 | 1006.3 |
| 20260506163548 | 13 | 307 | 1.6 | 3.2 | 0.13 | 1.17 | 1.17 | 92 | 1006.3 |
| 20260506163056 | 13 | 0 | 0.0 | 3.2 | 0.15 | 1.17 | 1.17 | 92 | 1006.5 |
| 20260506162548 | 13 | 313 | 0.0 | 1.6 | 0.15 | 1.14 | 1.14 | 92 | 1006.3 |
| 20260506162048 | 13 | 312 | 0.0 | 1.6 | 0.20 | 1.14 | 1.14 | 92 | 1006.4 |
| 20260506161553 | 13 | 0 | 0.0 | 8.0 | 0.23 | 1.14 | 1.14 | 91 | 1006.4 |
| 20260506161050 | 13 | 0 | 0.0 | 8.0 | 0.30 | 1.14 | 1.14 | 91 | 1006.4 |
| 20260506160549 | 13 | 340 | 3.2 | 8.0 | 0.33 | 1.14 | 1.14 | 91 | 1006.3 |
| 20260506160109 | 13 | 285 | 0.0 | 4.8 | 0.33 | 1.12 | 1.12 | 92 | 1006.2 |
| 20260506155548 | 13 | 286 | 0.0 | 4.8 | 0.36 | 1.12 | 1.12 | 91 | 1006.1 |
| 20260506155047 | 13 | 295 | 0.0 | 4.8 | 0.38 | 1.12 | 1.12 | 91 | 1006.2 |
| 20260506154554 | 13 | 0 | 1.6 | 9.7 | 0.38 | 1.09 | 1.09 | 91 | 1006.2 |
| 20260506154051 | 13 | 303 | 1.6 | 9.7 | 0.36 | 1.07 | 1.07 | 91 | 1006.3 |
| 20260506153546 | 13 | 0 | 0.0 | 11.3 | 0.36 | 1.04 | 1.04 | 91 | 1006.4 |
| 20260506153050 | 13 | 332 | 1.6 | 17.7 | 0.33 | 1.02 | 1.02 | 91 | 1006.5 |
| 20260506152548 | 13 | 39 | 4.8 | 17.7 | 0.33 | 0.99 | 0.99 | 91 | 1006.7 |
| 20260506152047 | 13 | 330 | 0.0 | 6.4 | 0.30 | 0.94 | 0.94 | 91 | 1006.6 |
| 20260506151557 | 13 | 327 | 1.6 | 11.3 | 0.30 | 0.91 | 0.91 | 91 | 1006.8 |
| 20260506151047 | 13 | 305 | 3.2 | 11.3 | 0.25 | 0.84 | 0.84 | 91 | 1006.8 |
| 20260506150547 | 13 | 301 | 0.0 | 11.3 | 0.23 | 0.81 | 0.81 | 91 | 1006.7 |
| 20260506150055 | 13 | 92 | 1.6 | 11.3 | 0.23 | 0.79 | 0.79 | 91 | 1006.4 |
| 20260506145548 | 13 | 359 | 3.2 | 12.9 | 0.23 | 0.76 | 0.76 | 91 | 1006.3 |
| 20260506145049 | 13 | 0 | 1.6 | 12.9 | 0.23 | 0.74 | 0.74 | 91 | 1006.3 |
| 20260506144601 | 13 | 347 | 3.2 | 12.9 | 0.23 | 0.71 | 0.71 | 91 | 1006.4 |
| 20260506144044 | 13 | 325 | 0.0 | 9.7 | 0.25 | 0.71 | 0.71 | 91 | 1006.2 |
| 20260506143548 | 13 | 345 | 1.6 | 9.7 | 0.28 | 0.69 | 0.69 | 91 | 1006.1 |
| 20260506143052 | 13 | 0 | 1.6 | 9.7 | 0.30 | 0.69 | 0.69 | 91 | 1006.2 |
| 20260506142547 | 13 | 318 | 1.6 | 8.0 | 0.28 | 0.64 | 0.64 | 91 | 1006.4 |
| 20260506142047 | 13 | 338 | 1.6 | 9.7 | 0.28 | 0.61 | 0.61 | 91 | 1006.4 |
| 20260506141550 | 13 | 319 | 1.6 | 9.7 | 0.30 | 0.61 | 0.61 | 91 | 1006.6 |
| 20260506141047 | 13 | 2 | 3.2 | 9.7 | 0.30 | 0.58 | 0.58 | 92 | 1006.5 |
| 20260506140547 | 13 | 284 | 1.6 | 4.8 | 0.36 | 0.58 | 0.58 | 92 | 1006.4 |
| 20260506140054 | 13 | 325 | 1.6 | 4.8 | 0.36 | 0.56 | 0.56 | 92 | 1006.4 |
| 20260506135546 | 13 | 339 | 1.6 | 3.2 | 0.33 | 0.53 | 0.53 | 92 | 1006.3 |
| 20260506135046 | 13 | 326 | 0.0 | 3.2 | 0.33 | 0.51 | 0.51 | 91 | 1006.6 |
| 20260506134556 | 13 | 320 | 1.6 | 3.2 | 0.33 | 0.48 | 0.48 | 91 | 1006.6 |
| 20260506134048 | 13 | 325 | 0.0 | 6.4 | 0.33 | 0.46 | 0.46 | 91 | 1006.6 |
| 20260506133547 | 13 | 0 | 0.0 | 6.4 | 0.30 | 0.41 | 0.41 | 91 | 1006.8 |
| 20260506133052 | 13 | 334 | 0.0 | 6.4 | 0.30 | 0.38 | 0.38 | 90 | 1006.9 |
| 20260506132552 | 13 | 318 | 1.6 | 9.7 | 0.30 | 0.36 | 0.36 | 90 | 1007.0 |
| 20260506132052 | 13 | 349 | 1.6 | 9.7 | 0.28 | 0.33 | 0.33 | 90 | 1007.1 |
| 20260506131604 | 12 | 290 | 1.6 | 12.9 | 0.28 | 0.30 | 0.30 | 90 | 1007.0 |
| 20260506131048 | 12 | 286 | 3.2 | 12.9 | 0.23 | 0.25 | 0.25 | 89 | 1007.3 |
| 20260506130548 | 12 | 314 | 1.6 | 9.7 | 0.20 | 0.23 | 0.23 | 90 | 1007.2 |
| 20260506130054 | 12 | 319 | 0.0 | 9.7 | 0.18 | 0.20 | 0.20 | 89 | 1007.4 |
| 20260506125546 | 12 | 0 | 0.0 | 0.0 | 0.18 | 0.18 | 0.18 | 89 | 1007.4 |
| 20260506125047 | 12 | 0 | 0.0 | 0.0 | 0.18 | 0.18 | 0.18 | 89 | 1007.5 |
| 20260506124552 | 12 | 0 | 0.0 | 0.0 | 0.15 | 0.15 | 0.15 | 89 | 1007.5 |
| 20260506124048 | 12 | 0 | 0.0 | 0.0 | 0.13 | 0.13 | 0.13 | 88 | 1007.5 |
| 20260506123547 | 12 | 0 | 0.0 | 0.0 | 0.08 | 0.08 | 0.08 | 88 | 1007.3 |
| 20260506123057 | 12 | 0 | 0.0 | 0.0 | 0.08 | 0.08 | 0.08 | 89 | 1007.4 |
| 20260506122547 | 12 | 0 | 0.0 | 0.0 | 0.05 | 0.05 | 0.05 | 90 | 1007.2 |
| 20260506122048 | 12 | 0 | 0.0 | 0.0 | 0.05 | 0.05 | 0.05 | 90 | 1007.0 |
| 20260506121557 | 12 | 0 | 0.0 | 0.0 | 0.03 | 0.03 | 0.03 | 90 | 1006.8 |
| 20260506121050 | 12 | 0 | 0.0 | 0.0 | 0.03 | 0.03 | 0.03 | 90 | 1006.8 |
| 20260506120548 | 12 | 0 | 0.0 | 0.0 | 0.03 | 0.03 | 0.03 | 89 | 1006.7 |
| 20260506120055 | 12 | 0 | 0.0 | 0.0 | 0.03 | 0.03 | 0.03 | 89 | 1006.9 |
| 20260506115548 | 12 | 0 | 0.0 | 0.0 | 0.00 | 0.00 | 0.00 | 89 | 1006.9 |
| 20260506115046 | 12 | 0 | 0.0 | 0.0 | 0.00 | 0.00 | 0.00 | 89 | 1007.1 |
| 20260506114558 | 12 | 0 | 0.0 | 0.0 | 0.00 | 0.00 | 0.00 | 89 | 1007.2 |
| 20260506114048 | 12 | 0 | 0.0 | 0.0 | 0.00 | 0.00 | 0.00 | 89 | 1007.1 |
| 20260506113547 | 12 | 0 | 0.0 | 0.0 | 0.00 | 0.00 | 0.00 | 89 | 1007.0 |
| 20260506113057 | 12 | 0 | 0.0 | 0.0 | 0.00 | 0.00 | 0.00 | 88 | 1006.9 |
| 20260506112549 | 12 | 0 | 0.0 | 0.0 | 0.00 | 0.00 | 0.00 | 88 | 1007.0 |
| 20260506112048 | 12 | 0 | 0.0 | 0.0 | 0.00 | 0.00 | 0.00 | 88 | 1007.0 |
| 20260506111550 | 12 | 0 | 0.0 | 0.0 | 0.00 | 0.00 | 0.00 | 88 | 1006.9 |
| 20260506111048 | 12 | 0 | 0.0 | 0.0 | 0.00 | 0.00 | 0.00 | 87 | 1006.8 |
| 20260506110548 | 12 | 0 | 0.0 | 0.0 | 0.00 | 0.00 | 0.00 | 87 | 1006.8 |
| 20260506110055 | 12 | 0 | 0.0 | 0.0 | 0.00 | 0.00 | 0.00 | 87 | 1006.6 |
| 20260506105548 | 12 | 0 | 0.0 | 0.0 | 0.00 | 0.00 | 0.00 | 86 | 1006.5 |
| 20260506105048 | 12 | 0 | 0.0 | 0.0 | 0.00 | 0.00 | 0.00 | 86 | 1006.6 |
| 20260506104555 | 12 | 0 | 0.0 | 0.0 | 0.00 | 0.00 | 0.00 | 86 | 1006.8 |
| 20260506104047 | 11 | 0 | 0.0 | 0.0 | 0.00 | 0.00 | 0.00 | 86 | 1006.8 |
| 20260506103547 | 11 | 0 | 0.0 | 0.0 | 0.00 | 0.00 | 0.00 | 87 | 1006.5 |
| 20260506103054 | 11 | 0 | 0.0 | 0.0 | 0.00 | 0.00 | 0.00 | 87 | 1006.5 |
| 20260506102547 | 11 | 0 | 0.0 | 0.0 | 0.00 | 0.00 | 0.00 | 87 | 1006.2 |
| 20260506102047 | 11 | 0 | 0.0 | 0.0 | 0.00 | 0.00 | 0.00 | 87 | 1006.2 |
| 20260506101552 | 11 | 0 | 0.0 | 0.0 | 0.00 | 0.00 | 0.00 | 87 | 1006.2 |
| 20260506101047 | 11 | 0 | 0.0 | 0.0 | 0.00 | 0.00 | 0.00 | 86 | 1006.3 |
| 20260506100547 | 11 | 0 | 0.0 | 0.0 | 0.00 | 0.00 | 0.00 | 86 | 1006.2 |
| 20260506100104 | 11 | 0 | 0.0 | 0.0 | 0.00 | 0.00 | 0.00 | 85 | 1006.3 |
| 20260506095548 | 11 | 0 | 0.0 | 0.0 | 0.00 | 0.00 | 0.00 | 84 | 1006.1 |
| 20260506095048 | 11 | 0 | 0.0 | 0.0 | 0.00 | 0.00 | 0.00 | 84 | 1006.3 |
| 20260506094614 | 11 | 0 | 0.0 | 0.0 | 0.00 | 0.00 | 0.00 | 84 | 1006.2 |
| 20260506094048 | 11 | 0 | 0.0 | 0.0 | 0.00 | 0.00 | 0.00 | 84 | 1006.2 |
| 20260506093548 | 11 | 0 | 0.0 | 0.0 | 0.00 | 0.00 | 0.00 | 85 | 1006.2 |
| 20260506093049 | 11 | 0 | 0.0 | 0.0 | 0.00 | 0.00 | 0.00 | 83 | 1006.5 |
| 20260506092548 | 12 | 0 | 0.0 | 0.0 | 0.00 | 0.00 | 0.00 | 84 | 1006.4 |
| 20260506092048 | 12 | 0 | 0.0 | 0.0 | 0.00 | 0.00 | 0.00 | 83 | 1006.3 |
| 20260506091556 | 12 | 0 | 0.0 | 0.0 | 0.00 | 0.00 | 0.00 | 83 | 1006.3 |
| 20260506091047 | 12 | 0 | 0.0 | 0.0 | 0.00 | 0.00 | 0.00 | 83 | 1006.3 |
| 20260506090546 | 12 | 0 | 0.0 | 0.0 | 0.00 | 0.00 | 0.00 | 83 | 1006.4 |
| 20260506090052 | 12 | 0 | 0.0 | 0.0 | 0.00 | 0.00 | 0.00 | 83 | 1006.4 |
| 20260506085547 | 12 | 0 | 0.0 | 0.0 | 0.00 | 0.00 | 0.00 | 82 | 1006.4 |
| 20260506085048 | 12 | 0 | 0.0 | 0.0 | 0.00 | 0.00 | 0.00 | 82 | 1006.4 |
| 20260506084558 | 12 | 0 | 0.0 | 0.0 | 0.00 | 0.00 | 0.00 | 82 | 1006.5 |
| 20260506084047 | 12 | 0 | 0.0 | 0.0 | 0.00 | 0.00 | 0.00 | 82 | 1006.5 |
| 20260506083547 | 12 | 0 | 0.0 | 0.0 | 0.00 | 0.00 | 0.00 | 81 | 1006.5 |
| 20260506083052 | 12 | 0 | 0.0 | 0.0 | 0.00 | 0.00 | 0.00 | 80 | 1006.5 |
| 20260506082546 | 12 | 0 | 0.0 | 0.0 | 0.00 | 0.00 | 0.00 | 81 | 1006.6 |
| 20260506082047 | 12 | 0 | 0.0 | 0.0 | 0.00 | 0.00 | 0.00 | 81 | 1006.7 |
| 20260506081553 | 12 | 0 | 0.0 | 0.0 | 0.00 | 0.00 | 0.00 | 80 | 1006.7 |
| 20260506081048 | 13 | 0 | 0.0 | 0.0 | 0.00 | 0.00 | 0.00 | 79 | 1006.5 |
| 20260506080547 | 13 | 0 | 0.0 | 0.0 | 0.00 | 0.00 | 0.00 | 79 | 1006.7 |
| 20260506073056 | 13 | 0 | 0.0 | 0.0 | 0.00 | 0.08 | 0.00 | 78 | 1006.5 |
| 20260506072547 | 13 | 0 | 0.0 | 0.0 | 0.00 | 0.08 | 0.00 | 78 | 1006.4 |
| 20260506072047 | 13 | 0 | 0.0 | 0.0 | 0.00 | 0.08 | 0.00 | 77 | 1006.6 |
| 20260506071559 | 13 | 0 | 0.0 | 0.0 | 0.00 | 0.08 | 0.00 | 78 | 1006.7 |
| 20260506071048 | 13 | 0 | 0.0 | 0.0 | 0.00 | 0.08 | 0.00 | 78 | 1006.8 |
| 20260506070552 | 12 | 0 | 0.0 | 0.0 | 0.00 | 0.08 | 0.00 | 81 | 1006.9 |
| 20260506062047 | 11 | 0 | 0.0 | 0.0 | 0.00 | 0.08 | 0.00 | 90 | 1007.4 |
| 20260506061552 | 11 | 0 | 0.0 | 0.0 | 0.00 | 0.08 | 0.00 | 90 | 1007.2 |
| 20260506061047 | 10 | 0 | 0.0 | 0.0 | 0.00 | 0.08 | 0.00 | 89 | 1007.3 |
| 20260506060548 | 10 | 0 | 0.0 | 0.0 | 0.00 | 0.08 | 0.00 | 89 | 1007.3 |
| 20260506051047 | 11 | 0 | 0.0 | 0.0 | 0.00 | 0.08 | 0.00 | 88 | 1007.9 |
| 20260506050548 | 11 | 0 | 0.0 | 0.0 | 0.00 | 0.08 | 0.00 | 88 | 1008.0 |
| 20260506045049 | 11 | 0 | 0.0 | 0.0 | 0.00 | 0.08 | 0.00 | 88 | 1007.9 |
| 20260506044550 | 11 | 0 | 0.0 | 0.0 | 0.00 | 0.08 | 0.00 | 88 | 1007.9 |
| 20260506044048 | 11 | 0 | 0.0 | 0.0 | 0.00 | 0.08 | 0.00 | 87 | 1007.9 |
| 20260506043548 | 11 | 0 | 0.0 | 0.0 | 0.00 | 0.08 | 0.00 | 87 | 1007.9 |
| 20260506043050 | 11 | 0 | 0.0 | 0.0 | 0.00 | 0.08 | 0.00 | 87 | 1007.7 |
| 20260506042545 | 11 | 0 | 0.0 | 0.0 | 0.00 | 0.08 | 0.00 | 88 | 1007.9 |
| 20260506042049 | 11 | 0 | 0.0 | 0.0 | 0.00 | 0.08 | 0.00 | 89 | 1007.9 |
| 20260506041554 | 11 | 0 | 0.0 | 0.0 | 0.00 | 0.08 | 0.00 | 89 | 1008.0 |
| 20260506041045 | 10 | 0 | 0.0 | 0.0 | 0.00 | 0.08 | 0.00 | 89 | 1008.0 |